• Processing (Info)

  • MPEC 2022-D59 : 2022 DJ1

    The following Minor Planet Electronic Circular may be linked-to from your own Web pages, but must not otherwise be redistributed electronically.

    A form allowing access to any MPEC is at the bottom of this page.


    Read MPEC 2022-D58 Read MPEC 2022-D60


    M.P.E.C. 2022-D59                             Issued 2022 February 25, 21:42 UT
    
         The Minor Planet Electronic Circulars contain information on unusual
             minor planets and routine data on comets.  They are published
        on behalf of Division F of the International Astronomical Union by the
              Minor Planet Center, Smithsonian Astrophysical Observatory,
                              Cambridge, MA 02138, U.S.A.
    
                 Prepared using the Tamkin Foundation Computer Network
    
                                  MPC@CFA.HARVARD.EDU
                URL https://www.minorplanetcenter.net/    ISSN 1523-6714
    
                                    2022 DJ1                                 
    
    
    Observations:
         K22D01J*HC2022 02 25.18658405 27 22.00 -10 50 24.7          19.34GVED059703
         K22D01J HC2022 02 25.19193305 27 38.90 -10 48 37.0                VED059703
         K22D01J HC2022 02 25.20262805 28 12.96 -10 44 59.5          18.80GVED059703
         K22D01J mC2022 02 25.21841005 29 03.52 -10 39 40.3          19.25GVED059I52
         K22D01J mC2022 02 25.21857505 29 04.02 -10 39 37.0          19.15GVED059I52
         K22D01J mC2022 02 25.21873905 29 04.58 -10 39 33.5          18.27GVED059I52
         K22D01J mC2022 02 25.21890405 29 05.09 -10 39 30.1          17.90GVED059I52
         K22D01J KC2022 02 25.37652905 38 39.37 -09 19 29.4          18.5 GVED059474
         K22D01J KC2022 02 25.37695405 38 40.57 -09 19 22.1          19.0 GVED059474
         K22D01J KC2022 02 25.37928805 38 46.88 -09 18 42.7          18.7 GVED059474
         K22D01J KC2022 02 25.37971305 38 48.07 -09 18 35.7          18.9 GVED059474
         K22D01J KC2022 02 25.38013905 38 49.23 -09 18 28.7          18.6 GVED059474
         K22D01J KC2022 02 25.40429 05 39 51.94 -09 11 52.7          19.1 GVED059R65
         K22D01J KC2022 02 25.40579 05 39 55.91 -09 11 27.6          19.2 GVED059R65
         K22D01J KC2022 02 25.40728 05 39 59.98 -09 11 03.2          18.5 GVED059R65
         K22D01J KC2022 02 25.78403505 57 45.87 -08 12 47.8                XED059958
         K22D01J KC2022 02 25.78454705 57 45.67 -08 12 54.4          19.9 GXED059I93
         K22D01J KC2022 02 25.78859305 57 53.44 -08 12 01.7          19.0 GXED059I93
         K22D01J KC2022 02 25.79258605 58 01.10 -08 11 09.1          18.8 GXED059I93
         K22D01J KC2022 02 25.79363105 58 04.23 -08 10 41.6          17.7 GXED059958
         K22D01J KC2022 02 25.80315505 58 22.20 -08 08 38.3          17.9 GXED059958
         K22D01J KC2022 02 25.82355705 59 01.10 -08 05 57.6          19.0 GVED059J95
         K22D01J KC2022 02 25.82659705 59 06.86 -08 05 17.7          18.4 GVED059J95
         K22D01J KC2022 02 25.82950805 59 12.44 -08 04 39.8          18.8 GVED059J95
         K22D01J KC2022 02 25.83229805 59 17.74 -08 04 03.6          18.6 GVED059J95
         K22D01J KC2022 02 25.86575 06 00 01.40 -07 56 06.2          18.5 GXED059G02
         K22D01J KC2022 02 25.87095 06 00 11.34 -07 54 58.9                XED059G02
         K22D01J KC2022 02 25.87609 06 00 21.20 -07 53 51.1                XED059G02
    
    Observer details:
    474 Mount John Observatory, Lake Tekapo.  Observers A. C. Gilmore, P. M.
        Kilmartin.  Measurer P. M. Kilmartin.  1.0-m f/7.7 reflector + CCD.
    703 Catalina Sky Survey.  Observers J. B. Fazekas, K. W. Wierzchos.  Measurers
        E. J. Christensen, G. A. Farneth, J. B. Fazekas, D. C. Fuls, A. R. Gibbs,
        A. D. Grauer, H. Groeller, R. A. Kowalski, S. M. Larson, G. J. Leonard, D.
        Rankin, R. L. Seaman, A. Serrano, F. C. Shelly, K. W. Wierzchos.  0.68-m
        Schmidt + 10K CCD.
    958 Observatoire de Dax.  Observers P. Dupouy, J. B. de Vanssay.  Measurer P.
        Dupouy.  0.43-m f/2.7 reflector + CCD.
    G02 KYSUCE Observatory, Kysucke Nove Mesto.  Observer M. Urbanik.  0.40-m
        f/5.5 Corrected Dall-Kirkham + CCD.
    I52 Steward Observatory, Mt. Lemmon Station.  Observer D. C. Fuls.  Measurers
        E. J. Christensen, G. A. Farneth, J. B. Fazekas, D. C. Fuls, A. R. Gibbs,
        A. D. Grauer, H. Groeller, R. A. Kowalski, S. M. Larson, G. J. Leonard, D.
        Rankin, R. L. Seaman, A. Serrano, F. C. Shelly, K. W. Wierzchos.
    I93 St Pardon de Conques.  Observer F. Losse.  0.40-m f/3.7 reflector + CCD.
    J95 Great Shefford.  Observer P. Birtwhistle.  0.41-m f/6.3 Schmidt-Cassegrain
        + CCD.
    R65 R. F. Joyce Observatory, Christchurch.  Observer R. B. Glassey.  0.4-m
        f/8.0 Schmidt-Cassegrain + CCD.
    
    Orbital elements:
    2022 DJ1                                                 Earth MOID = 0.0023 AU
    Epoch 2022 Jan. 21.0 TT = JDT 2459600.5                 Veres                   
    M  94.30166              (2000.0)            P               Q                  
    n   1.23671949     Peri.   32.86935     +0.99410996     -0.10525941             
    a   0.8595845      Node   333.13708     +0.08295207     +0.89224419             
    e   0.1874175      Incl.    3.27375     +0.06974489     +0.43911361             
    P   0.80           H   27.68          G   0.15           U   6                  
    Residuals in seconds of arc
    220225 703  0.5+  0.0     220225 474  0.1+  0.0     220225 958  0.7-  0.3-
    220225 703 (2.4-  1.2-)   220225 474  0.1+  0.2-    220225 J95  0.6+  0.3-
    220225 703  3.3-  0.9-    220225 R65  0.6+  0.1+    220225 J95  0.3-  0.1+
    220225 I52  0.0   0.1-    220225 R65  0.2-  0.2+    220225 J95  0.0   0.1+
    220225 I52  0.3-  0.2-    220225 R65  0.6+  0.2-    220225 J95  0.2-  0.0
    220225 I52  0.3+  0.0     220225 958  0.5+  0.1+    220225 G02  0.1+  0.6+
    220225 I52  0.1+  0.1+    220225 I93  0.1+  0.1+    220225 G02  0.8-  0.1-
    220225 474  0.5-  0.2-    220225 I93  0.1+  0.2-    220225 G02  0.6-  0.8+
    220225 474  0.1+  0.1-    220225 I93  0.2+  0.1+
    220225 474  0.4-  0.1+    220225 958  0.6+  0.8+
    
    Ephemeris:
    2022 DJ1                 a,e,i = 0.86, 0.19, 3                   q = 0.6985
    Date    TT    R. A. (2000) Decl.     Delta      r    Elong.  Phase     V
    2022 01 26    19 40 26.0 -02 25 33   0.07358 0.9161    20.7   157.6    32.0
    ...
    2022 02 10    19 42 03.1 -02 08 05   0.03356 0.9578    30.1   148.9    28.4
    ...
    2022 02 18    20 06 11.9 -04 32 59   0.01384 0.9762    30.1   149.5    26.7
    ...
    2022 02 24    03 16 54.8 -19 10 12   0.0031080.9885    70.3   109.5    19.3
    2022 02 25    05 15 37.8 -11 34 28   0.0047010.9905    98.8    80.9    18.8
    2022 02 26    06 05 16.8 -07 11 33   0.0068320.9925   110.9    68.8    19.3
    ...
    2022 03 04    07 11 35.9 -00 44 18   0.02111 1.0031   123.1    55.9    21.3
    ...
    2022 03 12    07 29 32.7 +00 49 14   0.04055 1.0147   120.6    57.5    22.8
    ...
    2022 03 27    07 47 33.7 +01 39 35   0.07651 1.0279   111.3    64.7    24.4
    
    M. P. C. Staff               (C) Copyright 2022 MPC           M.P.E.C. 2022-D59
    


    Read MPEC 2022-D58 Read MPEC 2022-D60


    MPEC number:

    Enter an MPEC number in one of the following forms:

    • 1997-B01 (the full form)
    • J97B01 (the packed version of the full form)
    • B01 (the abbreviated form)